Weather History for KOVL - February, 2014

Change the Weather History Date:

Wednesday, February 19, 2014

  Actual Average (KRWF) Record (KRWF)
Temperature  
Mean Temperature 28 °F -  
Max Temperature 39 °F 29 °F 56 °F (1981)
Min Temperature 17 °F 11 °F -22 °F (1936)
Degree Days  
Heating Degree Days 37    
Moisture  
Dew Point 26 °F    
Average Humidity 86    
Maximum Humidity 93    
Minimum Humidity 75    
Precipitation  
Precipitation 0.00 in - - ()
Sea Level Pressure  
Sea Level Pressure 29.71 in    
Wind  
Wind Speed 8 mph (SSW)    
Max Wind Speed 21 mph    
Max Gust Speed 26 mph    
Visibility 9 miles    
Events Fog    
Averages and records for this station are not official NWS values.
T = Trace of Precipitation, MM = Missing Value Source: NWS Daily Summary

Daily Weather History Graph

Daily Weather History Graph

Search for Another Location

Airport or City:

Trip Planner

Search our weather history database for the weather conditions in past years. The results will help you decide how hot, cold, wet, or windy it might be!

Date:

Astronomy

Feb. 19, 2014 Rise Set
Actual Time 7:14 AM CST 5:54 PM CST
Civil Twilight 6:44 AM CST 6:24 PM CST
Nautical Twilight 6:10 AM CST 6:58 PM CST
Astronomical Twilight 5:36 AM CST 7:31 PM CST
Moon 11:02 PM CST (2/19) 9:07 AM CST (2/19)
Length of Visible Light 11h 39m
Length of Day
10h 39m
Waning Gibbous, 79% of the Moon is Illuminated
Feb 19
Waning Gibbous
Feb 22
Last Quarter
Mar 1
New
Mar 8
First Quarter
Mar 16
Full

Hourly Weather History & Observations

Time (CST) Temp. Windchill Dew Point Humidity Pressure Visibility Wind Dir Wind Speed Gust Speed Precip Events Conditions
12:13 AM 21.2 °F 13.6 °F 19.4 °F 93% 29.79 in 7.0 mi WSW 5.8 mph - N/A   Clear
12:33 AM 23.0 °F 17.0 °F 21.2 °F 93% 29.79 in 10.0 mi West 4.6 mph - N/A   Clear
12:53 AM 21.2 °F 12.6 °F 19.4 °F 93% 29.79 in 7.0 mi WSW 6.9 mph - N/A   Clear
1:13 AM 21.2 °F 12.6 °F 19.4 °F 93% 29.79 in 10.0 mi WSW 6.9 mph - N/A   Clear
1:33 AM 23.0 °F 14.7 °F 21.2 °F 93% 29.79 in 10.0 mi West 6.9 mph - N/A   Clear
1:53 AM 23.0 °F 13.9 °F 21.2 °F 93% 29.79 in 10.0 mi WSW 8.1 mph - N/A   Clear
2:13 AM 21.2 °F 11.7 °F 19.4 °F 93% 29.79 in 10.0 mi WSW 8.1 mph - N/A   Clear
2:33 AM 26.6 °F 18.2 °F 23.0 °F 86% 29.79 in 10.0 mi WSW 8.1 mph - N/A   Clear
2:53 AM 26.6 °F 18.2 °F 23.0 °F 86% 29.80 in 10.0 mi WSW 8.1 mph - N/A   Clear
3:13 AM 23.0 °F 13.1 °F 19.4 °F 86% 29.79 in 10.0 mi WSW 9.2 mph - N/A   Clear
3:33 AM 21.2 °F 12.6 °F 19.4 °F 93% 29.78 in 10.0 mi SW 6.9 mph - N/A   Clear
3:53 AM 23.0 °F 15.8 °F 21.2 °F 93% 29.78 in 10.0 mi WSW 5.8 mph - N/A   Clear
4:13 AM 23.0 °F 14.7 °F 21.2 °F 93% 29.79 in 10.0 mi WSW 6.9 mph - N/A   Clear
4:33 AM 21.2 °F 14.9 °F 19.4 °F 93% 29.79 in 7.0 mi West 4.6 mph - N/A   Clear
4:53 AM 21.2 °F 11.7 °F 19.4 °F 93% 29.79 in 7.0 mi West 8.1 mph - N/A   Clear
5:13 AM 21.2 °F 14.9 °F 19.4 °F 93% 29.79 in 5.0 mi West 4.6 mph - N/A   Clear
5:33 AM 21.2 °F 14.9 °F 19.4 °F 93% 29.79 in 5.0 mi West 4.6 mph - N/A   Clear
5:53 AM 21.2 °F 13.6 °F 19.4 °F 93% 29.79 in 3.0 mi WSW 5.8 mph - N/A   Clear
6:13 AM 21.2 °F 12.6 °F 19.4 °F 93% 29.80 in 0.5 mi WSW 6.9 mph - N/A Fog Light Freezing Fog
6:33 AM 21.2 °F 16.4 °F 17.6 °F 86% 29.80 in 2.5 mi WSW 3.5 mph - N/A   Clear
6:53 AM 17.6 °F 9.3 °F 15.8 °F 93% 29.80 in 1.0 mi SW 5.8 mph - N/A   Mist
7:13 AM 17.6 °F 10.7 °F 14.0 °F 86% 29.80 in 0.2 mi SW 4.6 mph - N/A Fog Light Freezing Fog
7:33 AM 17.6 °F 12.3 °F 15.8 °F 93% 29.81 in 1.8 mi SW 3.5 mph - N/A   Mist
7:53 AM 17.6 °F 12.3 °F 15.8 °F 93% 29.80 in 1.8 mi SW 3.5 mph - N/A   Mist
8:13 AM 17.6 °F 12.3 °F 15.8 °F 93% 29.80 in 5.0 mi SW 3.5 mph - N/A   Clear
8:33 AM 21.2 °F - 17.6 °F 86% 29.80 in 10.0 mi Calm Calm - N/A   Clear
8:53 AM 23.0 °F 13.9 °F 21.2 °F 93% 29.81 in 10.0 mi SW 8.1 mph - N/A   Clear
9:14 AM 26.6 °F 19.1 °F 23.0 °F 86% 29.81 in 10.0 mi SW 6.9 mph - N/A   Clear
9:33 AM 28.4 °F 21.2 °F 26.6 °F 93% 29.80 in 10.0 mi SW 6.9 mph - N/A   Clear
9:53 AM 28.4 °F 22.2 °F 26.6 °F 93% 29.79 in 10.0 mi SSW 5.8 mph - N/A   Clear
10:13 AM 30.2 °F 25.4 °F 28.4 °F 93% 29.79 in 10.0 mi SSW 4.6 mph - N/A   Clear
10:33 AM 30.2 °F 24.3 °F 28.4 °F 93% 29.79 in 10.0 mi SSW 5.8 mph - N/A   Clear
10:53 AM 32.0 °F 25.6 °F 30.2 °F 93% 29.79 in 10.0 mi SSW 6.9 mph - N/A   Clear
11:13 AM 33.8 °F 28.6 °F 32.0 °F 93% 29.78 in 10.0 mi South 5.8 mph - N/A   Clear
11:33 AM 33.8 °F 27.0 °F 30.2 °F 87% 29.77 in 10.0 mi South 8.1 mph - N/A   Clear
11:53 AM 33.8 °F 27.7 °F 28.4 °F 81% 29.77 in 10.0 mi South 6.9 mph - N/A   Clear
12:13 PM 33.8 °F 27.0 °F 30.2 °F 87% 29.75 in 10.0 mi South 8.1 mph - N/A   Clear
12:33 PM 35.6 °F 29.9 °F 30.2 °F 81% 29.74 in 10.0 mi South 6.9 mph - N/A   Clear
12:53 PM 35.6 °F 28.0 °F 30.2 °F 81% 29.74 in 10.0 mi South 10.4 mph - N/A   Clear
1:13 PM 35.6 °F 28.6 °F 30.2 °F 81% 29.73 in 10.0 mi SSE 9.2 mph - N/A   Clear
1:33 PM 35.6 °F 28.0 °F 30.2 °F 81% 29.72 in 10.0 mi SSE 10.4 mph - N/A   Clear
1:53 PM 35.6 °F 27.5 °F 30.2 °F 81% 29.71 in 10.0 mi SSE 11.5 mph - N/A   Clear
2:13 PM 35.6 °F 27.5 °F 30.2 °F 81% 29.69 in 10.0 mi SSE 11.5 mph - N/A   Clear
2:33 PM 35.6 °F 28.0 °F 30.2 °F 81% 29.68 in 10.0 mi SE 10.4 mph - N/A   Clear
2:53 PM 35.6 °F 27.1 °F 32.0 °F 87% 29.67 in 10.0 mi SE 12.7 mph - N/A   Clear
3:13 PM 35.6 °F 27.1 °F 32.0 °F 87% 29.67 in 10.0 mi SSE 12.7 mph - N/A   Clear
3:33 PM 35.6 °F 26.2 °F 30.2 °F 81% 29.66 in 10.0 mi SE 15.0 mph - N/A   Clear
3:53 PM 35.6 °F 26.2 °F 30.2 °F 81% 29.65 in 10.0 mi SE 15.0 mph - N/A   Clear
4:13 PM 35.6 °F 27.1 °F 30.2 °F 81% 29.64 in 10.0 mi SSE 12.7 mph - N/A   Clear
4:33 PM 35.6 °F 27.1 °F 32.0 °F 87% 29.64 in 10.0 mi SSE 12.7 mph - N/A   Clear
4:53 PM 35.6 °F 27.1 °F 32.0 °F 87% 29.64 in 10.0 mi SSE 12.7 mph - N/A   Clear
5:14 PM 35.6 °F 26.2 °F 30.2 °F 81% 29.63 in 10.0 mi SE 15.0 mph - N/A   Clear
5:33 PM 35.6 °F 25.9 °F 32.0 °F 87% 29.62 in 10.0 mi SE 16.1 mph - N/A   Clear
5:53 PM 35.6 °F 26.6 °F 32.0 °F 87% 29.62 in 10.0 mi SE 13.8 mph - N/A   Clear
6:13 PM 35.6 °F 26.6 °F 32.0 °F 87% 29.61 in 10.0 mi SE 13.8 mph - N/A   Clear
6:33 PM 35.6 °F 26.6 °F 32.0 °F 87% 29.60 in 10.0 mi SE 13.8 mph - N/A   Clear
6:53 PM 35.6 °F 25.9 °F 32.0 °F 87% 29.60 in 10.0 mi SE 16.1 mph - N/A   Clear
7:13 PM 37.4 °F 28.5 °F 32.0 °F 81% 29.60 in 10.0 mi SSE 15.0 mph - N/A   Clear
7:33 PM 39.2 °F 30.8 °F 32.0 °F 75% 29.59 in 10.0 mi SSE 15.0 mph 20.7 mph N/A   Clear
7:53 PM 39.2 °F 29.3 °F 32.0 °F 75% 29.59 in 10.0 mi SSE 20.7 mph 26.5 mph N/A   Clear
8:13 PM 39.2 °F 30.2 °F 32.0 °F 75% 29.59 in 10.0 mi SSE 17.3 mph - N/A   Clear
8:33 PM 39.2 °F 30.8 °F 32.0 °F 75% 29.58 in 10.0 mi SSE 15.0 mph 21.9 mph N/A   Clear
8:53 PM 39.2 °F 30.2 °F 32.0 °F 75% 29.58 in 10.0 mi SSE 17.3 mph - N/A   Clear
9:13 PM 37.4 °F 28.2 °F 32.0 °F 81% 29.59 in 10.0 mi SSE 16.1 mph - N/A   Clear
9:33 PM 39.2 °F 30.5 °F 32.0 °F 75% 29.58 in 10.0 mi SSE 16.1 mph - N/A   Clear
9:53 PM 39.2 °F 29.8 °F 32.0 °F 75% 29.58 in 10.0 mi SSE 18.4 mph 24.2 mph N/A   Clear
10:13 PM 37.4 °F 27.5 °F 32.0 °F 81% 29.58 in 10.0 mi SSE 18.4 mph 24.2 mph N/A   Clear
10:33 PM 37.4 °F 27.5 °F 32.0 °F 81% 29.58 in 10.0 mi South 18.4 mph 24.2 mph N/A   Clear
10:53 PM 37.4 °F 27.8 °F 32.0 °F 81% 29.58 in 10.0 mi South 17.3 mph 23.0 mph N/A   Clear
11:13 PM 37.4 °F 27.8 °F 32.0 °F 81% 29.57 in 10.0 mi South 17.3 mph 24.2 mph N/A   Clear
11:33 PM 35.6 °F 25.5 °F 30.2 °F 81% 29.57 in 10.0 mi South 17.3 mph 23.0 mph N/A   Clear
11:53 PM 37.4 °F 28.9 °F 30.2 °F 75% 29.57 in 10.0 mi South 13.8 mph 24.2 mph N/A   Clear